Regional Weather Roundup
Issued by NWS Wakefield, VA

Home | Current Version | Previous Version | Text Only | Print | Product List | Glossary On
Versions: 1 2 3 4 5 6 7 8 9 10 11 12 13 14 15 16 17 18 19 20 21 22 23 24 25 26 27
000
ASUS41 KAKQ 211115
RWRAKQ

REGIONAL WEATHER ROUNDUP
NATIONAL WEATHER SERVICE WAKEFIELD VA
700 AM EDT THU SEP 21 2017

Note: "fair" indicates few or no clouds below 12,000 feet with no
significant weather and/or obstructions to visibility. * = Denotes
station may not report precipitation (e.g., rain,snow,etc.),
thunder or fog.

VAZ042-051-052>054-056-211200-
NORTHERN VIRGINIA

CITY           SKY/WX    TMP DP  RH WIND       PRES   REMARKS
WASH NATIONAL  PTCLDY    68  62  81 N7        30.05R
DULLES         PTCLDY    62  60  93 CALM      30.06R
FORT BELVOIR   CLEAR     68  60  75 NW3       30.04R
QUANTICO       PTCLDY    68  63  84 CALM      30.05R
FREDERICKSBRG* CLEAR     62  62 100 CALM      30.04R
STAFFORD*      CLEAR     57  57 100 N6        30.08S
WARRENTON        N/A     55  52  90 CALM      30.05R FOG
CULPEPER*      CLEAR     60  60  99 CALM      30.07R
MANASSAS*      CLEAR     57  56  96 CALM      30.06R
LEESBURG*      CLEAR     63  63 100 CALM      30.08R
WINCHESTER     CLEAR     55  55 100 CALM      30.09R FOG
FRONT ROYAL*   MOSUNNY   59  59 100 CALM      30.08R
LURAY*         PTSUNNY   59  59 100 CALM      30.10R FOG
$$

VAZ048-049-060>072-079>083-211200-
CENTRAL AND SOUTH CENTRAL VIRGINIA

CITY           SKY/WX    TMP DP  RH WIND       PRES   REMARKS
RICHMOND       PTCLDY    67  64  90 NW5       30.03R
CHESTERFIELD*  NOT AVBL
PETERSBURG*    PTCLDY    62  62 100 CALM      30.04R
HANOVER        PTCLDY    64  63  96 CALM      30.04R
TAPPAHANNOCK*  PTCLDY   N/A N/A N/A CALM      30.04R
QUINTON*       FAIR      61  61 100 MISG      30.02R
CHARLOTTSVILLE CLEAR     67  65  93 CALM      30.06S
GORDONSVILLE*  MOSUNNY   61  61 100 CALM      30.05R
ORANGE*        CLEAR     61  61 100 CALM      30.06R
LOUISA*        CLEAR     64  61  88 N5        30.05R
BUMPASS*       NOT AVBL
FARMVILLE*     CLOUDY    66  66 100 CALM      30.04R
CREWE*         CLOUDY    66  66 100 NW3       30.04R
FORT PICKETT*  PTSUNNY   66  66 100 NW5       30.05R
CHASE CITY*    FAIR      65  65 100 N3        30.04S
CLARKSVILLE*   FAIR      64  64 100 CALM      30.04R
SOUTH HILL*    CLEAR     66  66  98 CALM      30.09R
LAWRENCEVILLE* FAIR      65  64  95 CALM      30.03R
EMPORIA*       CLEAR     63  63 100 CALM      30.04R
$$

VAZ088>098-211200-
SOUTHEAST VIRGINIA

CITY           SKY/WX    TMP DP  RH WIND       PRES   REMARKS
NORFOLK        CLEAR     71  68  90 CALM      30.00R
VIRGINIA BEACH CLEAR     64  62  93 CALM      29.99R
NORFOLK NAVAL  PTCLDY    68  65  90 NW6       30.02R
WEST POINT*      N/A     61  61 100 CALM      30.04R
SALUDA*        FAIR      67  67 100 NW3       30.01R
NEWPORT NEWS   CLEAR     64  62  93 N3        30.01R
LANGLEY AFB    CLEAR     67  65  94 CALM      30.00R
FORT EUSTIS    CLEAR     68  65  88 NW5       29.99R
WILLIAMSBURG*  CLEAR     64  64 100 CALM      30.03R
HR EXEC AP*    FOG       58  58 100 CALM      30.02R VSB<1/4
FRANKLIN*      CLEAR     60  60  97 CALM      30.02R
US460-WAKEFLD  CLEAR     62  62 100 CALM      30.02R FOG
$$

VAZ020-022-025-037-045-211200-
WEST CENTRAL AND SOUTHWEST VIRGINIA

CITY           SKY/WX    TMP DP  RH WIND       PRES   REMARKS
STAUNTON*      FOG       57  57 100 CALM      30.13R VSB 1
WAYNESBORO*    MOSUNNY   61  61 100 SW5       30.12R
HOT SPRINGS VA PTCLDY    63  57  81 N5        30.22R
LYNCHBURG      CLEAR     65  63  93 CALM      30.07R
DANVILLE       CLEAR     62  62 100 CALM      30.06R
SOUTH BOSTON*  FAIR      62  60  95 CALM      30.05R
MARTINSVILLE   CLEAR     58  58  99 CALM      30.10R FOG
ROANOKE        CLEAR     65  64  97 CALM      30.12R
BLACKSBURG     CLEAR     60  60 100 CALM      30.17R FOG
DUBLIN*        CLEAR     61  61  99 CALM      30.16R
MARION*        CLEAR     58  55  90 CALM      30.20R
HILLSVILLE*    CLEAR     59  55  87 CALM      30.16R
RICHLANDS*     FAIR      62  60  94 CALM      30.18R
WISE*          CLEAR     63  63 100 CALM      30.19R
ABINGDON*      CLEAR     61  61 100 CALM      30.16R
$$

MDZ021>025-VAZ099-100-211200-
SOUTHERN MARYLAND AND THE DELMARVA PENINSULA

CITY           SKY/WX    TMP DP  RH WIND       PRES   REMARKS
PATUXENT RIVER PTCLDY    66  65  96 CALM      30.03R
BAY BRIDGE APT CLEAR     70  66  88 N5        30.03R
LEONARDTOWN    CLEAR     61  59  94 CALM      30.05R
DOVER          MOCLDY    66  66 100 NW3       30.01R
GEORGETOWN     PTCLDY    68  65  90 NW3       30.02R
EASTON         CLEAR     66  64  94 CALM      30.06R
CAMBRIDGE      CLEAR     64  64 100 CALM      30.02R FOG
SALISBURY      CLEAR     65  65 100 CALM      30.02R
OCEAN CITY     CLOUDY   N/A N/A N/A NW5       30.01R
WALLOPS ISLAND CLEAR     66  66 100 NW5       30.01R
ACCOMACK*      FOG       64  64  99 N5        30.00R VSB 1/4
$$

NCZ012>017-030>032-211200-
NORTH CENTRAL AND EASTERN NORTH CAROLINA

CITY           SKY/WX    TMP DP  RH WIND       PRES   REMARKS
ROANOKE RAPIDS PTSUNNY   68  68 100 MISG      30.02R FOG
RALEIGH        PTCLDY    66  65  96 CALM      30.04R
ELIZABETH CITY CLEAR     67  67 100 CALM      30.00R
AHOSKIE*         N/A     64  64 100 CALM      30.01R FOG
EDENTON*       CLEAR     67  65  94 CALM      30.01R
CURRITUCK*     CLEAR     66  64  94 CALM      30.01R
KILL DEVIL HLS CLEAR     70  70 100 CALM      29.98R
MANTEO         FOG       66  66  98 CALM      30.00R VSB 1/4
CAPE HATTERAS  PTCLDY    69  68  96 CALM      29.99R FOG
TARBORO*       NOT AVBL
GOLDSBORO      CLEAR     67  67 100 CALM      30.00R
WASHINGTON     CLEAR     68  67  96 CALM      30.01R FOG
GREENVILLE     CLEAR     68  68 100 CALM      30.03R FOG
NEW BERN       CLEAR     69  68  96 S3        30.02R FOG
WILMINGTON     CLEAR     72  71  97 CALM      30.02R
$$

VAZ048-211200-
ELSEWHERE

CITY           SKY/WX    TMP DP  RH WIND       PRES   REMARKS
HARRISBURG PA  MOCLDY    66  63  90 N6        30.06R
BALTIMORE      PTCLDY    63  62  97 CALM      30.04R
ANNAPOLIS      CLEAR     72  69  90 NW3       30.03R
ANDREWS AFB    CLEAR     64  59  84 CALM      30.04R
PHILADELPHIA   MOCLDY    73  62  68 N9        30.03R
HENDERSON NC   CLEAR     63  61  92 CALM      30.04R
GREENSBORO     PTCLDY    67  65  93 N3        30.06R
ROCKY MOUNT    CLEAR     67  67 100 N3        30.02R
$$

VAZ100-211200-
MARINE

STATION/POSITION TIME  TEMP    WIND        PRES    WAVE   SWELL
                       AIR SEA DIR/SP/G            HT/PER HT/PER
                 (UTC) (F)     (DEG/KT/KT) (MB)    (FT/S) (FT/S)
BRANDYWINE LGT   1036   74     350/ 10/ 12 1016.4R
CAPE MAY NJ      1048   74 73  350/  3/  6 1015.5R
LEWES DE         1048   73 73  310/  7/  8 1016.0R
15NM E FENWICK I 1050   73 71  310/ 10/ 12 1015.8R   5/10   5/10
OCEAN-CITY-INLET 1048   71 74  360/  4/  5 1016.4R
WACHAPREAGUE VA  1048   70 74  340/  3/  4 1015.9R
THOMAS POINT MD  1100   72 75  350/  8/  9   N/A
GOOSES REEF MD   1100   75 75   10/  8/ 10 1017.4    2
COVE POINT MD    1048   74      20/ 10/ 11 1017.4R
SOLOMONS ISLAND  1048   69 76  350/  4/  5 1016.5R
BISHOPS HEAD MD  1048   71 76   10/  5/  7 1016.7R
PINEY POINT MD   1048          360/  8/  9   N/A
POTOMAC MD       1100   71 75  360/  8/ 10 1015.9
CAMBRIDGE MD     1036   68 76              1017.3R
LEWISETTA VA     1048   71 76  330/  7/  8 1016.4R
RAPPAHANNOCK LGT 1048          350/  8/  9 1016.5R
STINGRAY PT      1100   73 76  340/  8/  8 1016.4    0
YORK RVR RNG VA  1048   71     320/  7/  8 1016.5R
YORKTOWN VA      1048   72 76  320/  6/  7 1015.8R
JAMESTOWN VA     1100      77  350/  4/  8   N/A     0
DOMINION TERM VA 1048   74      CALM  /  3 1016.2R
KIPTOPEKE VA     1048      75  340/  4/  5   N/A
CHES BAY BRIDGE  1048   74 75  320/  9/  9 1015.7R
CAPE HENRY VA    1048   73     290/  5/  6   N/A
WILLOUBY STN VA  1036   73     340/  8/ 10 1015.8R
S CRANEY ISL VA  1048   70     340/  3/  3 1015.7R
CAPE HENRY BUOY  1030      74                N/A     3/11   2/11
1ST LANDING BUOY 1100   74 75              1015.7    2/ 6
64NM E OF VA BCH 1050   70 70  320/  4/  6 1015.8R   6/11   7/11
DUCK PIER NC     1048   73 75  290/  8/  8 1015.3R
44100 DUCK FRF   1005      74                N/A     5/10   2/11
44056 DUCK FRF   1030      75                N/A     4/10   2/11
OREGON INLET NC  1036   73 77  280/  2/  3 1015.3R
HATTERAS NC      1048   76 77  360/  3/  3 1015.5R
DIAMOND SHLS NC  1050   75 75  280/  2/  2 1015.2R   4/10   5/10
CAPE LOOKOUT NC  1100   76     290/  7/  8 1015.8R
$$




USA.gov is the U.S. government's official web portal to all federal, state and local government web resources and services.